La Grande, OR

4:45 PM PDT on September 28, 2016 (GMT -0700)
La Grande-Union County

Weather History for KLGD - January, 2014

Change the Weather History Date:

Monday, January 6, 2014

  Actual Average Record
Temperature  
Mean Temperature 27 °F -  
Max Temperature 37 °F 36 °F 50 °F (1978)
Min Temperature 17 °F 26 °F -14 °F (1974)
Degree Days  
Heating Degree Days 38    
Moisture  
Dew Point 10 °F    
Average Humidity 46    
Maximum Humidity 74    
Minimum Humidity 33    
Precipitation  
Precipitation 0.00 in - - ()
Sea Level Pressure  
Sea Level Pressure 30.31 in    
Wind  
Wind Speed 11 mph (SSW)    
Max Wind Speed 29 mph    
Max Gust Speed 39 mph    
Visibility 10 miles    
Events      
Averages and records for this station are not official NWS values.
T = Trace of Precipitation, MM = Missing Value Source: NWS Daily Summary

Daily Weather History Graph

Daily Weather History Graph

Search for Another Location

Airport or City:

Trip Planner

Search our weather history database for the weather conditions in past years. The results will help you decide how hot, cold, wet, or windy it might be!

Date:

Astronomy

Jan. 06, 2014 Rise Set
Actual Time 7:30 AM PST 4:25 PM PST
Civil Twilight 6:57 AM PST 4:58 PM PST
Nautical Twilight 6:20 AM PST 5:35 PM PST
Astronomical Twilight 5:44 AM PST 6:11 PM PST
Moon 10:30 AM PST (1/6) 11:23 PM PST (1/6)
Length of Visible Light 10h 01m
Length of Day
8h 54m
Waxing Crescent, 36% of the Moon is Illuminated
Jan 6
Waxing Crescent
Jan 7
First Quarter
Jan 15
Full
Jan 23
Last Quarter
Jan 30
New

Hourly Weather History & Observations

Time (PST) Temp. Windchill Dew Point Humidity Pressure Visibility Wind Dir Wind Speed Gust Speed Precip Events Conditions
12:15 AM 19.4 °F - 10.4 °F 68% 30.46 in 10.0 mi Calm Calm - N/A   Clear
12:35 AM 21.2 °F - 10.4 °F 63% 30.45 in 10.0 mi Calm Calm - N/A   Clear
12:55 AM 19.4 °F - 10.4 °F 68% 30.44 in 10.0 mi Calm Calm - N/A   Clear
1:15 AM 19.4 °F 14.3 °F 10.4 °F 68% 30.44 in 10.0 mi SSE 3.5 mph - N/A   Clear
1:35 AM 17.6 °F - 8.6 °F 68% 30.44 in 10.0 mi Calm Calm - N/A   Clear
1:55 AM 17.6 °F - 8.6 °F 68% 30.44 in 10.0 mi Calm Calm - N/A   Clear
2:15 AM 19.4 °F 10.4 °F 10.4 °F 68% 30.44 in 10.0 mi NNW 6.9 mph - N/A   Clear
2:35 AM 19.4 °F 11.5 °F 10.4 °F 68% 30.44 in 10.0 mi NW 5.8 mph - N/A   Clear
2:55 AM 19.4 °F 12.8 °F 10.4 °F 68% 30.44 in 10.0 mi NW 4.6 mph - N/A   Clear
3:15 AM 19.4 °F 12.8 °F 10.4 °F 68% 30.44 in 10.0 mi NW 4.6 mph - N/A   Clear
3:35 AM 19.4 °F 12.8 °F 10.4 °F 68% 30.44 in 10.0 mi NNW 4.6 mph - N/A   Clear
3:55 AM 19.4 °F 12.8 °F 10.4 °F 68% 30.43 in 10.0 mi NW 4.6 mph - N/A   Clear
4:15 AM 19.4 °F 12.8 °F 10.4 °F 68% 30.43 in 10.0 mi NNW 4.6 mph - N/A   Clear
4:35 AM 19.4 °F 11.5 °F 10.4 °F 68% 30.42 in 10.0 mi NNW 5.8 mph - N/A   Clear
4:55 AM 19.4 °F 14.3 °F 10.4 °F 68% 30.42 in 10.0 mi NW 3.5 mph - N/A   Clear
5:15 AM 19.4 °F - 8.6 °F 63% 30.42 in 10.0 mi Calm Calm - N/A   Clear
5:35 AM 19.4 °F 10.4 °F 12.2 °F 74% 30.41 in 10.0 mi NNE 6.9 mph - N/A   Clear
5:55 AM 19.4 °F 10.4 °F 8.6 °F 63% 30.41 in 10.0 mi North 6.9 mph - N/A   Clear
6:15 AM 19.4 °F 12.8 °F 10.4 °F 68% 30.40 in 10.0 mi WNW 4.6 mph - N/A   Clear
6:35 AM 19.4 °F 10.4 °F 10.4 °F 68% 30.39 in 10.0 mi NNW 6.9 mph - N/A   Clear
6:55 AM 19.4 °F 11.5 °F 10.4 °F 68% 30.39 in 10.0 mi NNW 5.8 mph - N/A   Clear
7:15 AM 19.4 °F 10.4 °F 8.6 °F 63% 30.39 in 10.0 mi NNW 6.9 mph - N/A   Clear
7:35 AM 19.4 °F 10.4 °F 8.6 °F 63% 30.39 in 10.0 mi NW 6.9 mph - N/A   Clear
7:55 AM 21.2 °F 11.7 °F 10.4 °F 63% 30.40 in 10.0 mi NW 8.1 mph - N/A   Clear
8:15 AM 21.2 °F 16.4 °F 10.4 °F 63% 30.40 in 10.0 mi WNW 3.5 mph - N/A   Clear
8:35 AM 30.2 °F 18.5 °F 15.8 °F 55% 30.40 in 10.0 mi South 17.3 mph 20.7 mph N/A   Clear
8:55 AM 33.8 °F 23.2 °F 12.2 °F 41% 30.40 in 10.0 mi SSW 17.3 mph 23.0 mph N/A   Clear
9:15 AM 33.8 °F 23.2 °F 10.4 °F 38% 30.40 in 10.0 mi South 17.3 mph 24.2 mph N/A   Clear
9:35 AM 33.8 °F 22.5 °F 10.4 °F 38% 30.39 in 10.0 mi South 19.6 mph 25.3 mph N/A   Clear
9:55 AM 33.8 °F 21.6 °F 8.6 °F 35% 30.39 in 10.0 mi SSE 23.0 mph 28.8 mph N/A   Clear
10:15 AM 33.8 °F 21.6 °F 8.6 °F 35% 30.38 in 10.0 mi South 23.0 mph 27.6 mph N/A   Clear
10:35 AM 35.6 °F 25.2 °F 10.4 °F 35% 30.37 in 10.0 mi SSE 18.4 mph 28.8 mph N/A   Clear
10:55 AM 35.6 °F 23.7 °F 10.4 °F 35% 30.36 in 10.0 mi South 24.2 mph 31.1 mph N/A   Clear
11:15 AM 35.6 °F 23.7 °F 8.6 °F 33% 30.34 in 10.0 mi South 24.2 mph 34.5 mph N/A   Clear
11:35 AM 35.6 °F 23.2 °F 10.4 °F 35% 30.32 in 10.0 mi South 26.5 mph 31.1 mph N/A   Clear
11:55 AM 37.4 °F 25.2 °F 10.4 °F 33% 30.31 in 10.0 mi South 28.8 mph 38.0 mph N/A   Clear
12:15 PM 35.6 °F 23.2 °F 10.4 °F 35% 30.29 in 10.0 mi South 26.5 mph 39.1 mph N/A   Clear
12:35 PM 37.4 °F 25.4 °F 10.4 °F 33% 30.28 in 10.0 mi South 27.6 mph 35.7 mph N/A   Clear
12:55 PM 37.4 °F 25.6 °F 10.4 °F 33% 30.28 in 10.0 mi South 26.5 mph 33.4 mph N/A   Clear
1:15 PM 37.4 °F 26.1 °F 10.4 °F 33% 30.27 in 10.0 mi South 24.2 mph 33.4 mph N/A   Clear
1:35 PM 37.4 °F 26.9 °F 10.4 °F 33% 30.26 in 10.0 mi SSE 20.7 mph 34.5 mph N/A   Clear
1:55 PM 37.4 °F 25.2 °F 10.4 °F 33% 30.26 in 10.0 mi South 28.8 mph 34.5 mph N/A   Clear
2:15 PM 37.4 °F 25.9 °F 10.4 °F 33% 30.25 in 10.0 mi South 25.3 mph 33.4 mph N/A   Clear
2:35 PM 35.6 °F 24.2 °F 10.4 °F 35% 30.25 in 10.0 mi South 21.9 mph 32.2 mph N/A   Clear
2:55 PM 35.6 °F 23.0 °F 10.4 °F 35% 30.25 in 10.0 mi South 27.6 mph 35.7 mph N/A   Clear
3:15 PM 35.6 °F 23.4 °F 10.4 °F 35% 30.24 in 10.0 mi South 25.3 mph 39.1 mph N/A   Clear
3:35 PM 35.6 °F 23.4 °F 10.4 °F 35% 30.25 in 10.0 mi South 25.3 mph 34.5 mph N/A   Clear
3:55 PM 35.6 °F 23.7 °F 10.4 °F 35% 30.24 in 10.0 mi South 24.2 mph 32.2 mph N/A   Clear
4:15 PM 35.6 °F 24.5 °F 10.4 °F 35% 30.25 in 10.0 mi South 20.7 mph 32.2 mph N/A   Clear
4:35 PM 35.6 °F 24.5 °F 10.4 °F 35% 30.23 in 10.0 mi South 20.7 mph 27.6 mph N/A   Clear
4:55 PM 35.6 °F 25.2 °F 8.6 °F 33% 30.23 in 10.0 mi SSE 18.4 mph 25.3 mph N/A   Clear
5:15 PM 35.6 °F 25.2 °F 8.6 °F 33% 30.23 in 10.0 mi South 18.4 mph 29.9 mph N/A   Clear
5:35 PM 33.8 °F 22.5 °F 8.6 °F 35% 30.23 in 10.0 mi South 19.6 mph 27.6 mph N/A   Clear
5:55 PM 33.8 °F 22.2 °F 8.6 °F 35% 30.22 in 10.0 mi South 20.7 mph 29.9 mph N/A   Clear
6:15 PM 33.8 °F 23.2 °F 8.6 °F 35% 30.22 in 10.0 mi SSE 17.3 mph 27.6 mph N/A   Clear
6:35 PM 32.0 °F 19.5 °F 8.6 °F 38% 30.21 in 10.0 mi South 21.9 mph 28.8 mph N/A   Clear
6:55 PM 32.0 °F 19.2 °F 8.6 °F 38% 30.21 in 10.0 mi South 23.0 mph 33.4 mph N/A   Clear
7:15 PM 32.0 °F 19.8 °F 8.6 °F 38% 30.21 in 10.0 mi South 20.7 mph 32.2 mph N/A   Clear
7:35 PM 32.0 °F 18.4 °F 8.6 °F 38% 30.20 in 10.0 mi South 26.5 mph 36.8 mph N/A   Clear
7:55 PM 33.8 °F 21.9 °F 8.6 °F 35% 30.20 in 10.0 mi South 21.9 mph 36.8 mph N/A   Clear
8:15 PM 33.8 °F 21.6 °F 8.6 °F 35% 30.20 in 10.0 mi South 23.0 mph 39.1 mph N/A   Clear
8:35 PM 33.8 °F 22.2 °F 8.6 °F 35% 30.19 in 10.0 mi South 20.7 mph 31.1 mph N/A   Clear
8:55 PM 33.8 °F 21.0 °F 8.6 °F 35% 30.19 in 10.0 mi South 25.3 mph 35.7 mph N/A   Partly Cloudy
9:15 PM 33.8 °F 22.5 °F 8.6 °F 35% 30.18 in 10.0 mi South 19.6 mph 31.1 mph N/A   Clear
9:35 PM 35.6 °F 25.5 °F 8.6 °F 33% 30.17 in 10.0 mi South 17.3 mph 28.8 mph N/A   Clear
9:55 PM 35.6 °F 24.5 °F 8.6 °F 33% 30.17 in 10.0 mi South 20.7 mph 28.8 mph N/A   Clear
10:15 PM 35.6 °F 24.5 °F 8.6 °F 33% 30.17 in 10.0 mi South 20.7 mph 29.9 mph N/A   Scattered Clouds
10:35 PM 35.6 °F 24.8 °F 8.6 °F 33% 30.17 in 10.0 mi South 19.6 mph 32.2 mph N/A   Partly Cloudy
10:55 PM 35.6 °F 24.8 °F 8.6 °F 33% 30.17 in 10.0 mi South 19.6 mph 27.6 mph N/A   Scattered Clouds
11:15 PM 35.6 °F 24.0 °F 8.6 °F 33% 30.17 in 10.0 mi South 23.0 mph 31.1 mph N/A   Mostly Cloudy
11:35 PM 35.6 °F 24.8 °F 8.6 °F 33% 30.16 in 10.0 mi South 19.6 mph - N/A   Mostly Cloudy
11:55 PM 35.6 °F 25.2 °F 8.6 °F 33% 30.16 in 10.0 mi South 18.4 mph 26.5 mph N/A   Overcast